W5CGC Weather Reports


Display with metric or nautical units.
time (UTC)temp
F
wind
direction
speed
MPH
gust
MPH
rain 1hr
in
rain 24hr
in
rain mn
in
humidity
%
barometer
mb
20180426224744 71 106 0.0 1.0 0.00 0.01 0.00 51 1014.3
20180426223243 72 97 0.0 2.0 0.00 0.01 0.00 51 1014.0
20180426221743 72 4 0.0 1.0 0.00 0.01 0.00 52 1013.9
20180426220243 72 79 0.0 1.0 0.00 0.01 0.00 53 1014.1
20180426214741 72 64 0.0 2.0 0.00 0.03 0.00 54 1014.1
20180426213235 73 300 0.0 2.0 0.00 0.03 0.00 48 1014.3
20180426211734 73 75 0.0 1.0 0.00 0.03 0.00 51 1014.6
20180426210231 72 33 0.0 1.0 0.00 0.03 0.00 49 1014.9
20180426204728 72 95 0.0 1.0 0.00 0.07 0.00 48 1015.1
20180426203225 72 158 0.0 3.0 0.00 0.07 0.00 50 1015.2
20180426201722 71 90 0.0 4.0 0.00 0.07 0.00 52 1015.5
20180426200217 72 92 0.0 1.0 0.00 0.07 0.00 52 1015.8
20180426194715 72 84 0.0 1.0 0.00 0.14 0.00 51 1016.0
20180426193212 70 65 0.0 2.0 0.00 0.14 0.00 52 1016.2
20180426191709 71 58 0.0 1.0 0.00 0.14 0.00 53 1016.3
20180426190208 70 102 0.0 1.0 0.00 0.14 0.00 55 1016.3
20180426184704 70 47 0.0 2.0 0.00 0.31 0.00 56 1016.6
20180426183201 69 86 0.0 2.0 0.00 0.31 0.00 58 1016.7
20180426181700 69 128 0.0 1.0 0.00 0.31 0.00 59 1016.9
20180426180156 68 129 0.0 1.0 0.00 0.31 0.00 57 1016.9
20180426174652 67 88 0.0 1.0 0.00 0.31 0.00 59 1017.2
20180426173150 66 115 0.0 2.0 0.00 0.31 0.00 62 1017.5
20180426171647 64 77 0.0 1.0 0.00 0.31 0.00 65 1017.7
20180426170141 63 140 0.0 1.0 0.00 0.31 0.00 66 1017.9
20180426164640 63 81 0.0 1.0 0.00 0.31 0.00 67 1018.1
20180426163136 62 16 0.0 2.0 0.00 0.31 0.00 69 1018.1
20180426161633 61 69 0.0 2.0 0.00 0.31 0.00 73 1018.3
20180426160130 59 60 0.0 2.0 0.00 0.31 0.00 76 1018.5
20180426154627 59 80 0.0 2.0 0.00 0.31 0.00 83 1018.5
20180426153122 58 125 0.0 1.0 0.00 0.31 0.00 88 1018.7
20180426151620 56 290 0.0 1.0 0.00 0.31 0.00 93 1018.6
20180426150118 55 268 0.0 2.0 0.00 0.31 0.00 94 1018.5
20180426144615 54 76 0.0 1.0 0.00 0.31 0.00 95 1018.5
20180426143109 52 72 0.0 1.0 0.00 0.31 0.00 95 1018.6
20180426141608 50 60 0.0 1.0 0.00 0.31 0.00 95 1018.7
20180426140104 50 90 0.0 1.0 0.00 0.31 0.00 95 1018.8
20180426134603 49 313 0.0 2.0 0.00 0.31 0.00 95 1018.9
20180426133102 48 294 0.0 0.0 0.00 0.31 0.00 95 1018.9
20180426131556 47 294 0.0 0.0 0.00 0.31 0.00 95 1018.9
20180426130054 45 294 0.0 0.0 0.00 0.31 0.00 95 1018.8
20180426124554 45 165 0.0 0.0 0.00 0.31 0.00 95 1018.6
20180426123052 44 163 0.0 0.0 0.00 0.31 0.00 95 1018.3
20180426121551 43 165 0.0 0.0 0.00 0.31 0.00 95 1018.1
20180426120051 42 165 0.0 0.0 0.00 0.31 0.00 95 1018.1
20180426114549 42 164 0.0 0.0 0.00 0.31 0.00 95 1017.9
20180426113049 42 255 0.0 0.0 0.00 0.31 0.00 95 1017.9
20180426111548 42 255 0.0 0.0 0.00 0.31 0.00 95 1017.6
20180426110047 42 255 0.0 0.0 0.00 0.31 0.00 94 1017.5
20180426104547 42 255 0.0 0.0 0.00 0.31 0.00 94 1017.4
20180426103047 42 255 0.0 0.0 0.00 0.31 0.00 94 1017.5
20180426101545 42 255 0.0 0.0 0.00 0.31 0.00 94 1017.4
20180426100045 42 255 0.0 0.0 0.00 0.31 0.00 94 1017.3
20180426094541 42 255 0.0 0.0 0.00 0.31 0.00 94 1017.6
20180426093042 43 255 0.0 0.0 0.00 0.31 0.00 94 1017.6
20180426091539 43 255 0.0 0.0 0.00 0.31 0.00 94 1017.6
20180426090040 43 255 0.0 0.0 0.00 0.31 0.00 94 1017.7
20180426084537 43 255 0.0 0.0 0.00 0.31 0.00 94 1017.6
20180426083034 44 255 0.0 0.0 0.00 0.31 0.00 94 1017.6
20180426081533 44 255 0.0 0.0 0.00 0.31 0.00 94 1017.6
20180426080031 44 255 0.0 0.0 0.00 0.31 0.00 94 1017.7
20180426074529 44 255 0.0 0.0 0.00 0.31 0.00 94 1017.8
20180426073027 44 255 0.0 0.0 0.00 0.31 0.00 94 1018.1
20180426071525 44 255 0.0 0.0 0.00 0.31 0.00 94 1018.5
20180426070022 44 255 0.0 0.0 0.00 0.31 0.00 94 1018.8
20180426064521 44 255 0.0 0.0 0.00 0.33 0.00 94 1018.9
20180426063022 44 255 0.0 0.0 0.00 0.33 0.00 93 1018.9
20180426061516 45 255 0.0 0.0 0.00 0.33 0.00 93 1019.2
20180426060018 46 255 0.0 0.0 0.00 0.33 0.00 93 1019.1
20180426054513 46 255 0.0 0.0 0.00 0.33 0.00 93 1019.2
20180426053008 46 255 0.0 0.0 0.01 0.33 0.00 93 1019.4
20180426051506 47 255 0.0 0.0 0.01 0.33 0.00 93 1019.6
20180426050009 47 255 0.0 0.0 0.01 0.33 0.00 93 1019.5
20180426044506 47 255 0.0 0.0 0.01 0.33 0.33 93 1019.6
20180426043003 47 255 0.0 0.0 0.00 0.32 0.32 93 1019.6
20180426041500 47 255 0.0 0.0 0.00 0.32 0.32 93 1019.8
20180426040002 48 255 0.0 0.0 0.00 0.32 0.32 93 1020.0
20180426034459 48 255 0.0 0.0 0.00 0.32 0.32 93 1020.0
20180426032959 48 255 0.0 0.0 0.00 0.32 0.32 93 1020.0
20180426031458 48 255 0.0 0.0 0.00 0.32 0.32 93 1020.0
20180426025956 48 255 0.0 0.0 0.00 0.32 0.32 92 1020.0
20180426024458 48 255 0.0 0.0 0.00 0.32 0.32 92 1020.0
20180426022953 49 255 0.0 0.0 0.00 0.32 0.32 92 1020.0
20180426021456 49 255 0.0 0.0 0.00 0.32 0.32 92 1019.9
20180426015951 50 255 0.0 0.0 0.00 0.32 0.32 92 1019.9
20180426014451 50 255 0.0 0.0 0.00 0.32 0.32 91 1019.9
20180426012946 51 255 0.0 0.0 0.00 0.32 0.32 91 1019.9
20180426011446 52 255 0.0 0.0 0.00 0.32 0.32 91 1019.8
20180426005944 52 255 0.0 0.0 0.00 0.32 0.32 91 1019.9
20180426004443 53 276 0.0 0.0 0.00 0.32 0.32 90 1019.8
20180426002944 53 259 0.0 1.0 0.00 0.32 0.32 90 1019.8
20180426001441 54 341 0.0 0.0 0.00 0.32 0.32 91 1019.9
20180425235941 54 281 0.0 1.0 0.00 0.32 0.32 91 1019.9
20180425234442 54 166 0.0 1.0 0.00 0.32 0.32 91 1020.0
20180425232940 53 53 0.0 1.0 0.00 0.32 0.32 91 1020.1
20180425231440 53 291 0.0 2.0 0.00 0.32 0.32 91 1020.4
20180425225940 53 277 0.0 2.0 0.00 0.32 0.32 92 1020.4